Flag for U.S.A. Weather past 2 weeks in Yonkers, New York, U.S.A.

Now
52 °F

Rain. Overcast.


Feels Like: 47 °F
Forecast: 49 / 53 °F
Wind: 14 mph from North

Location: Teterboro Airport

Current Time: Oct 23, 2014 at 5:45:08 AM

Latest Report: Oct 23, 2014 at 4:51 AM


Visibility: 7 mi

Pressure: 29.70 "Hg

Humidity: 80%

Dew point: 46 °F

Location of YonkersLocation

Historic Weather in Yonkers — Graph

°F

Yonkers temperature yesterday

Maximum temperature yesterday: 57 °F (at 3:51 AM)
Minimum temperature yesterday: 52 °F (at 8:51 PM)
Average temperature yesterday: 55 °F

Past Weeks' High & Low Weather Summary

 TemperatureHumidityPressure
High81 °F (Oct 15, 11:51 AM)94% (Oct 14, 2:58 AM)30.33 "Hg (Oct 14, 2:58 AM)
Low38 °F (Oct 20, 2:51 AM)27% (Oct 9, 12:51 PM)29.56 "Hg (Oct 18, 1:51 PM)
Average60 °F65%29.95 "Hg
* Reported Oct 8 4:51 AM — Oct 23 4:51 AM, Yonkers, Weather by CustomWeather, © 2014

Note: Actual official high and low records may vary slightly from our data, if they occured in-between our weather recording intervals... More about our weather records

Advertising

Yonkers weather history for previous 24 hours

 ConditionsComfort  
Time TempWeatherWind HumidityBarometerVisibility
4:51 AM
Oct 23
52 °FRain. Overcast.14 mph80%29.70 "Hg7 mi
3:51 AM53 °FLight rain. Mostly cloudy.14 mph74%29.70 "Hg10 mi
2:51 AM53 °FOvercast.13 mph74%29.71 "Hg10 mi
1:51 AM53 °FOvercast.17 mph74%29.72 "Hg10 mi
12:51 AM53 °FOvercast.17 mph74%29.72 "Hg10 mi
11:51 PM
Oct 22
52 °FLight rain. Mostly cloudy.22 mph80%29.72 "Hg10 mi
10:51 PM52 °FHeavy rain. Mostly cloudy.17 mph80%29.75 "Hg4 mi
9:51 PM52 °FLight rain. Fog.15 mph83%29.75 "Hg8 mi
8:51 PM52 °FLight rain. Fog.17 mph83%29.77 "Hg5 mi
7:51 PM53 °FLight rain. Fog.12 mph80%29.78 "Hg4 mi
6:51 PM53 °FLight rain. Fog.10 mph83%29.82 "Hg4 mi
5:51 PM53 °FRain. Mostly cloudy.12 mph83%29.82 "Hg5 mi
4:51 PM56 °FOvercast.14 mph70%29.83 "Hg5 mi
3:51 PM56 °FOvercast.16 mph72%29.84 "Hg10 mi
2:51 PM57 °FOvercast.10 mph72%29.85 "Hg10 mi
1:51 PM57 °FOvercast.13 mph74%29.87 "Hg10 mi
12:51 PM57 °FMostly cloudy.12 mph74%29.89 "Hg10 mi
11:51 AM56 °FOvercast.12 mph77%29.91 "Hg10 mi
10:51 AM55 °FPartly sunny.12 mph83%29.92 "Hg10 mi
9:51 AM55 °FLight rain. Overcast.10 mph83%29.93 "Hg10 mi
9:00 AM54 °FLight rain. Cloudy.9 mph88%29.93 "Hg10 mi
7:51 AM55 °FLight rain. Mostly cloudy.8 mph87%29.92 "Hg5 mi
6:51 AM56 °FRain. Mostly cloudy.8 mph87%29.91 "Hg5 mi
5:51 AM56 °FLight rain. Overcast.8 mph87%29.89 "Hg10 mi
Weather by CustomWeather, © 2014

See weather overviewHow to use our weather pages